Regional Weather Roundup
Issued by NWS

Home | Current Version | Previous Version | Graphics & Text | Print | Product List | Glossary On
Versions: 1 2 3 4 5 6 7 8 9 10 11 12 13 14 15 16 17 18 19 20 21 22 23 24 25 26 27 28 29 30 31 32 33 34 35 36 37 38 39 40 41 42 43 44 45 46 47 48 49 50
000
ASUS45 KBOU 281607
RWRCO

WEATHER ROUNDUP FOR COLORADO
NATIONAL WEATHER SERVICE DENVER/BOULDER CO
900 AM MST FRI NOV 28 2014

NOTE: "FAIR" INDICATES FEW OR NO CLOUDS BELOW 12000 FEET WITH NO
SIGNIFICANT WEATHER AND/OR OBSTRUCTIONS TO VISIBILITY.

COZ001>005-013-030-031-281700-
...NORTHWEST COLORADO...

CITY           SKY/WX    TMP DP  RH WIND       PRES   REMARKS
CRAIG          SUNNY     28  24  85 CALM      30.15F
HAYDEN         SUNNY     27  19  74 E12       30.15S WCI  16
MEEKER         MOSUNNY   36  22  56 VRB3      30.17S
MOUNT WERNER   NOT AVBL
STEAMBOAT SPGS PTSUNNY   18  16  91 CALM      30.17F VSB 1/4
WALDEN         CLOUDY    39  12  33 SE13      30.14F
$$

COZ006>008-011-281700-
...WEST CENTRAL VALLEYS...

CITY           SKY/WX    TMP DP  RH WIND       PRES   REMARKS
GRAND JUNCTION MOSUNNY   34  25  69 SE6       30.22S WCI  29
MONTROSE       SUNNY     35  21  56 S6        30.24F WCI  30
EAGLE          MOSUNNY   28  27  93 CALM      30.25S
RIFLE          MOSUNNY   30  26  85 CALM      30.23F
DELTA          SUNNY     33  24  68 CALM      30.24S
NUCLA          SUNNY     36  21  55 SE3       30.28S
$$

COZ017>023-064>068-281700-
...SOUTHWEST COLORADO...

CITY           SKY/WX    TMP DP  RH WIND       PRES   REMARKS
DURANGO        SUNNY     33  21  61 CALM      30.30R
CORTEZ         SUNNY     36  19  50 NE3       30.27F
PAGOSA SPRINGS SUNNY     35  22  57 CALM      30.32S
TELLURIDE      SUNNY     36  10  33 SE6       30.35S
WOLF CREEK PAS SUNNY     32   1  27 MISG      30.41S
$$

COZ009-010-012-014-032>034-037-058>063-281700-
...CENTRAL COLORADO...

CITY           SKY/WX    TMP DP  RH WIND       PRES   REMARKS
ASPEN          MOSUNNY   35  19  52 CALM      30.22S
BUENA VISTA    SUNNY     52  -1  11 SW17G25   30.17S
COPPER MTN     MOSUNNY   36   0  21 SW21G37   30.34S
BERTHOUD PASS  NOT AVBL
COTTONWOOD PAS SUNNY     46 -15   7 W33G54    30.19F
GUNNISON       MOSUNNY   16  10  79 CALM      30.38S
KREMMLING      SUNNY     28  21  74 E5        30.20F WCI  23
LEADVILLE      MOSUNNY   41   2  19 NE10      30.25S
MONARCH PASS   MOSUNNY   30   0  27 W43G49    30.43S WCI  13
SALIDA         SUNNY     53   4  14 SW17G25   30.22F
SUNLIGHT       MOSUNNY   32  19  59 CALM      30.32R
WILKERSON PASS MOSUNNY   36  -4  18 W14G26    30.24S
$$

COZ069>075-281700-
...SAN LUIS VALLEY/SANGRE DE CRISTO MOUNTAINS...

CITY           SKY/WX    TMP DP  RH WIND       PRES   REMARKS
ALAMOSA        MOSUNNY   25  13  60 NW3       30.27S
LA VETA PASS   MOSUNNY   34  10  37 S15G26    30.21S WCI  24
SAGUACHE       MOSUNNY   32  18  55 CALM      30.28S
$$

COZ035-036-038>040-281700-
...NORTHERN COLORADO FRONT RANGE...

CITY           SKY/WX    TMP DP  RH WIND       PRES   REMARKS
DENVER INTL AP CLOUDY    49  21  33 S9        29.95S
DMNS CITY PARK   N/A     49  16  27 S9        29.94S
AURORA         PTSUNNY   54  13  19 S8        29.97S
FRONT RANGE AP NOT AVBL
ERIE MUNI ARPT CLOUDY    63   4   9 SW12G18   29.92F
BOULDER MUN AP CLOUDY    59  12  15 E9G16     29.92R
CENTENNIAL     CLOUDY    51  12  21 SE12      29.97S
BROOMFIELD     PTSUNNY   52  16  24 SE7       29.95S
FORT COLLINS   CLOUDY    39  23  52 NW3       29.93F
LONGMONT       CLOUDY    66   8  10 W22G31    29.93F
$$

COZ041-046-047-076>085-087-088-281700-
...PIKES PEAK/PALMER DIVIDE AND SOUTHERN FOOTHILLS...

CITY           SKY/WX    TMP DP  RH WIND       PRES   REMARKS
COLO. SPRINGS  CLOUDY    50  15  24 CALM      30.04S
A. F. ACADEMY  CLOUDY    40  15  36 N6        30.04S
ELLICOTT       NOT AVBL
FALCON         NOT AVBL
FORT CARSON    CLOUDY    45  18  33 NW8       30.01F
LIMON          PTSUNNY   47  21  35 N7        29.99R
MONUMENT HILL  CLOUDY    46  10  23 S7        30.04R
TRINIDAD       PTSUNNY   45  21  38 W10       30.07F
$$

COZ042>045-048>051-090-091-281700-
...NORTHEAST COLORADO...

CITY           SKY/WX    TMP DP  RH WIND       PRES   REMARKS
GREELEY ARPT   CLOUDY    36  25  64 SE5       29.93F
AKRON          CLOUDY    52  21  29 W13       29.93R
BURLINGTON     MOSUNNY   60  21  22 W12       29.93R
WRAY           MOSUNNY   50  29  44 W9        29.89S
STERLING       CLOUDY    36  32  87 S6        29.91S
HOLYOKE        MOSUNNY   52  32  46 W8        29.87F
FORT MORGAN    CLOUDY    42  25  50 CALM      29.93S
$$

COZ086-089-092>099-281700-
...SOUTHEAST COLORADO...

CITY           SKY/WX    TMP DP  RH WIND       PRES   REMARKS
PUEBLO         CLOUDY    41  24  51 W3        30.00S
LA JUNTA       PTSUNNY   51  22  31 W7        29.98S
LAMAR          MOSUNNY   51  24  34 W8        29.95R
SPRINGFIELD      N/A     67  13  12 W13       29.97S
$$



USA.gov is the U.S. government's official web portal to all federal, state and local government web resources and services.